When you browse on this site, cookies collect data to enhance your experience and personalize the content and advertising you see.
Visit our Privacy Policy to learn more. By continuing to use the site, you agree to this use of cookies and data.
  • en France
  • Liste des pays
  • À 7 jours
  • Température de l'eau
  • Carte météo
  • Widgets météo
  • user-avatar
    Se connecter

    Météo par heure à Wiesbaden

    Ce jour, 19 Septembre, Jeudi

    Heure Température Précipitation Vent Pression Humidité
    00:00 +10°C° 0 mm 2 m/s 757 mmHg 71%
    01:00 +10°C° 0 mm 2 m/s 757 mmHg 71%
    02:00 +9°C° 0 mm 2 m/s 757 mmHg 74%
    03:00 +10°C° 0 mm 1 m/s 757 mmHg 76%
    04:00 +10°C° 0 mm 1 m/s 757 mmHg 78%
    05:00 +9°C° 0 mm 1 m/s 757 mmHg 79%
    06:00 +9°C° 0 mm 1 m/s 757 mmHg 80%
    07:00 +9°C° 0 mm 2 m/s 758 mmHg 81%
    08:00 +10°C° 0 mm 2 m/s 758 mmHg 72%
    09:00 +13°C° 0 mm 2 m/s 758 mmHg 62%
    10:00 +14°C° 0 mm 2 m/s 758 mmHg 53%
    11:00 +14°C° 0 mm 3 m/s 758 mmHg 48%
    12:00 +16°C° 0 mm 3 m/s 758 mmHg 43%
    13:00 +17°C° 0 mm 3 m/s 758 mmHg 40%
    14:00 +17°C° 0 mm 3 m/s 758 mmHg 40%
    15:00 +17°C° 0 mm 3 m/s 758 mmHg 40%
    16:00 +17°C° 0 mm 3 m/s 757 mmHg 40%
    17:00 +16°C° 0 mm 3 m/s 758 mmHg 46%
    18:00 +13°C° 0 mm 3 m/s 758 mmHg 51%
    19:00 +13°C° 0 mm 2 m/s 758 mmHg 57%
    20:00 +12°C° 0 mm 2 m/s 758 mmHg 60%
    21:00 +10°C° 0 mm 2 m/s 758 mmHg 62%
    22:00 +10°C° 0 mm 2 m/s 758 mmHg 65%
    23:00 +10°C° 0 mm 1 m/s 758 mmHg 67%

    Demain, 20 Septembre, Vendredi

    Heure Température Précipitation Vent Pression Humidité
    00:00 +10°C° 0 mm 1 m/s 758 mmHg 69%
    01:00 +9°C° 0 mm 1 m/s 758 mmHg 70%
    02:00 +9°C° 0 mm 1 m/s 758 mmHg 71%
    03:00 +9°C° 0 mm 1 m/s 758 mmHg 73%
    04:00 +9°C° 0 mm 1 m/s 758 mmHg 74%
    05:00 +9°C° 0 mm 1 m/s 758 mmHg 74%
    06:00 +9°C° 0 mm 1 m/s 758 mmHg 73%
    07:00 +9°C° 0 mm 1 m/s 758 mmHg 73%
    08:00 +10°C° 0 mm 2 m/s 758 mmHg 67%
    09:00 +13°C° 0 mm 2 m/s 758 mmHg 60%
    10:00 +14°C° 0 mm 2 m/s 757 mmHg 53%
    11:00 +16°C° 0 mm 2 m/s 757 mmHg 48%
    12:00 +17°C° 0 mm 2 m/s 757 mmHg 43%
    13:00 +18°C° 0 mm 2 m/s 756 mmHg 37%
    14:00 +19°C° 0 mm 2 m/s 756 mmHg 37%
    15:00 +19°C° 0 mm 3 m/s 755 mmHg 37%
    16:00 +19°C° 0 mm 3 m/s 755 mmHg 37%
    17:00 +18°C° 0 mm 2 m/s 755 mmHg 42%
    18:00 +16°C° 0 mm 2 m/s 755 mmHg 48%
    19:00 +15°C° 0 mm 2 m/s 754 mmHg 53%
    20:00 +14°C° 0 mm 2 m/s 754 mmHg 55%
    21:00 +13°C° 0 mm 2 m/s 754 mmHg 58%
    22:00 +13°C° 0 mm 2 m/s 754 mmHg 60%
    23:00 +12°C° 0 mm 2 m/s 754 mmHg 62%

    Après-demain, 21 Septembre, Samedi

    Heure Température Précipitation Vent Pression Humidité
    00:00 +12°C° 0 mm 2 m/s 754 mmHg 64%
    01:00 +10°C° 0 mm 2 m/s 753 mmHg 66%
    02:00 +10°C° 0 mm 2 m/s 753 mmHg 68%
    03:00 +10°C° 0 mm 2 m/s 753 mmHg 70%
    04:00 +9°C° 0 mm 2 m/s 752 mmHg 72%
    05:00 +9°C° 0 mm 2 m/s 752 mmHg 72%
    06:00 +9°C° 0 mm 2 m/s 752 mmHg 72%
    07:00 +9°C° 0 mm 2 m/s 752 mmHg 72%
    08:00 +12°C° 0 mm 2 m/s 752 mmHg 63%
    09:00 +13°C° 0 mm 3 m/s 751 mmHg 55%
    10:00 +16°C° 0 mm 3 m/s 751 mmHg 46%
    11:00 +18°C° 0 mm 3 m/s 751 mmHg 43%
    12:00 +19°C° 0 mm 3 m/s 751 mmHg 39%
    13:00 +21°C° 0 mm 3 m/s 750 mmHg 36%
    14:00 +21°C° 0 mm 3 m/s 750 mmHg 37%
    15:00 +21°C° 0 mm 3 m/s 749 mmHg 37%
    16:00 +22°C° 0 mm 3 m/s 748 mmHg 37%
    17:00 +20°C° 0 mm 3 m/s 748 mmHg 43%
    18:00 +18°C° 0 mm 2 m/s 748 mmHg 49%
    19:00 +17°C° 0 mm 2 m/s 748 mmHg 54%
    20:00 +16°C° 0 mm 2 m/s 748 mmHg 58%
    21:00 +15°C° 0 mm 2 m/s 748 mmHg 61%
    22:00 +14°C° 0 mm 2 m/s 747 mmHg 64%
    23:00 +14°C° 0 mm 2 m/s 747 mmHg 67%

    22 Septembre, Dimanche

    Heure Température Précipitation Vent Pression Humidité
    00:00 +13°C° 0 mm 1 m/s 747 mmHg 70%
    01:00 +13°C° 0 mm 1 m/s 747 mmHg 72%
    02:00 +12°C° 0 mm 1 m/s 746 mmHg 74%
    03:00 +12°C° 0 mm 1 m/s 746 mmHg 76%
    04:00 +11°C° 0 mm 1 m/s 746 mmHg 78%
    05:00 +12°C° 0 mm 1 m/s 746 mmHg 78%
    06:00 +12°C° 0 mm 1 m/s 746 mmHg 77%
    07:00 +12°C° 0 mm 1 m/s 745 mmHg 77%
    08:00 +14°C° 0 mm 1 m/s 745 mmHg 70%
    09:00 +15°C° 0 mm 1 m/s 745 mmHg 64%
    10:00 +18°C° 0 mm 1 m/s 745 mmHg 58%
    11:00 +19°C° 0 mm 1 m/s 745 mmHg 56%
    12:00 +20°C° 0 mm 1 m/s 745 mmHg 55%
    13:00 +20°C° 0 mm 2 m/s 744 mmHg 54%
    14:00 +20°C° 0 mm 1 m/s 744 mmHg 56%
    15:00 +20°C° 0 mm 1 m/s 743 mmHg 59%
    16:00 +19°C° 0 mm 1 m/s 743 mmHg 62%
    17:00 +18°C° 0 mm 1 m/s 742 mmHg 65%
    18:00 +18°C° 0 mm 1 m/s 742 mmHg 68%
    19:00 +16°C° 0 mm 1 m/s 742 mmHg 70%
    20:00 +16°C° 0 mm 1 m/s 742 mmHg 72%
    21:00 +15°C° 0 mm 1 m/s 742 mmHg 73%
    22:00 +15°C° 0 mm 1 m/s 742 mmHg 74%
    23:00 +14°C° 0.2 mm 0 m/s 742 mmHg 76%

    23 Septembre, Lundi

    Heure Température Précipitation Vent Pression Humidité
    00:00 +14°C° 0.2 mm 0 m/s 742 mmHg 78%
    01:00 +14°C° 0.2 mm 0 m/s 742 mmHg 80%
    02:00 +15°C° 1.3 mm 1 m/s 743 mmHg 84%
    03:00 +15°C° 1.3 mm 2 m/s 743 mmHg 88%
    04:00 +15°C° 1.3 mm 2 m/s 743 mmHg 93%
    05:00 +14°C° 0.8 mm 3 m/s 744 mmHg 92%
    06:00 +14°C° 0.8 mm 3 m/s 744 mmHg 91%
    07:00 +14°C° 0.8 mm 4 m/s 744 mmHg 90%
    08:00 +14°C° 0.5 mm 3 m/s 745 mmHg 89%
    09:00 +14°C° 0.5 mm 3 m/s 745 mmHg 89%
    10:00 +14°C° 0.5 mm 3 m/s 745 mmHg 88%
    11:00 +14°C° 0.2 mm 3 m/s 746 mmHg 86%
    12:00 +16°C° 0.2 mm 3 m/s 746 mmHg 84%
    13:00 +16°C° 0.2 mm 3 m/s 746 mmHg 82%
    14:00 +17°C° 0.1 mm 2 m/s 746 mmHg 81%
    15:00 +17°C° 0.1 mm 2 m/s 746 mmHg 80%
    16:00 +17°C° 0.1 mm 2 m/s 746 mmHg 79%
    17:00 +16°C° 0.1 mm 2 m/s 746 mmHg 81%
    18:00 +16°C° 0.1 mm 2 m/s 746 mmHg 83%
    19:00 +15°C° 0.1 mm 2 m/s 746 mmHg 85%
    20:00 +15°C° 0 mm 2 m/s 747 mmHg 86%
    21:00 +15°C° 0 mm 2 m/s 747 mmHg 87%
    22:00 +14°C° 0 mm 2 m/s 748 mmHg 88%
    23:00 +14°C° 0 mm 2 m/s 748 mmHg 88%

    24 Septembre, Mardi

    Heure Température Précipitation Vent Pression Humidité
    00:00 +13°C° 0 mm 1 m/s 748 mmHg 88%
    01:00 +13°C° 0 mm 1 m/s 748 mmHg 88%
    02:00 +13°C° 0 mm 1 m/s 748 mmHg 88%
    03:00 +12°C° 0 mm 1 m/s 748 mmHg 88%
    04:00 +12°C° 0 mm 1 m/s 748 mmHg 89%
    05:00 +12°C° 0 mm 1 m/s 748 mmHg 88%
    06:00 +12°C° 0 mm 1 m/s 748 mmHg 88%
    07:00 +12°C° 0 mm 1 m/s 748 mmHg 88%
    08:00 +14°C° 0 mm 1 m/s 747 mmHg 82%
    09:00 +15°C° 0 mm 1 m/s 747 mmHg 76%
    10:00 +17°C° 0 mm 2 m/s 747 mmHg 70%
    11:00 +18°C° 0 mm 2 m/s 746 mmHg 65%
    12:00 +19°C° 0 mm 3 m/s 746 mmHg 60%
    13:00 +20°C° 0 mm 3 m/s 746 mmHg 55%
    14:00 +20°C° 0 mm 3 m/s 745 mmHg 56%
    15:00 +20°C° 0 mm 3 m/s 745 mmHg 56%
    16:00 +20°C° 0 mm 3 m/s 744 mmHg 57%
    17:00 +18°C° 0.4 mm 3 m/s 744 mmHg 66%
    18:00 +17°C° 0.4 mm 3 m/s 744 mmHg 75%
    19:00 +16°C° 0.4 mm 3 m/s 744 mmHg 84%
    20:00 +14°C° 0 mm 3 m/s 744 mmHg 83%
    21:00 +14°C° 0 mm 3 m/s 744 mmHg 82%
    22:00 +14°C° 0 mm 3 m/s 743 mmHg 81%
    23:00 +14°C° 0.3 mm 3 m/s 743 mmHg 83%
    Voir plus